Stündliche Wetter Cislitsa-Prut

Heute, 24 Januar, Sonntag

Zeit Temperatur Niederschläge Wind Luftdruck Luftfeuchtigkeit
00:00 +7°C° 0.1 mm 8 m/S 749 mmHg 84%
01:00 +7°C° 0.1 mm 8 m/S 749 mmHg 84%
02:00 +7°C° 0.1 mm 8 m/S 749 mmHg 84%
03:00 +7°C° 0.5 mm 8 m/S 748 mmHg 85%
04:00 +7°C° 0.5 mm 9 m/S 747 mmHg 86%
05:00 +7°C° 0.5 mm 9 m/S 747 mmHg 88%
06:00 +7°C° 0.4 mm 8 m/S 747 mmHg 87%
07:00 +7°C° 0.4 mm 8 m/S 747 mmHg 86%
08:00 +8°C° 0.4 mm 7 m/S 747 mmHg 85%
09:00 +7°C° 0 mm 8 m/S 747 mmHg 79%
10:00 +9°C° 0 mm 8 m/S 747 mmHg 74%
11:00 +9°C° 0 mm 8 m/S 747 mmHg 68%
12:00 +9°C° 0 mm 7 m/S 747 mmHg 65%
13:00 +10°C° 0 mm 7 m/S 747 mmHg 62%
14:00 +11°C° 0 mm 6 m/S 747 mmHg 59%
15:00 +10°C° 0 mm 5 m/S 747 mmHg 63%
16:00 +10°C° 0 mm 4 m/S 747 mmHg 67%
17:00 +10°C° 0 mm 3 m/S 747 mmHg 71%
18:00 +9°C° 0 mm 3 m/S 747 mmHg 74%
19:00 +8°C° 0 mm 3 m/S 748 mmHg 78%
20:00 +7°C° 0 mm 3 m/S 748 mmHg 81%
21:00 +7°C° 0 mm 3 m/S 748 mmHg 82%
22:00 +7°C° 0 mm 3 m/S 748 mmHg 83%
23:00 +5°C° 0 mm 3 m/S 749 mmHg 85%

Morgen, 25 Januar, Montag

Zeit Temperatur Niederschläge Wind Luftdruck Luftfeuchtigkeit
00:00 +5°C° 0 mm 3 m/S 748 mmHg 83%
01:00 +5°C° 0 mm 3 m/S 748 mmHg 82%
02:00 +5°C° 0 mm 3 m/S 748 mmHg 81%
03:00 +5°C° 0 mm 3 m/S 748 mmHg 83%
04:00 +5°C° 0 mm 3 m/S 747 mmHg 86%
05:00 +4°C° 0 mm 4 m/S 746 mmHg 88%
06:00 +5°C° 0 mm 5 m/S 746 mmHg 89%
07:00 +6°C° 0 mm 5 m/S 746 mmHg 90%
08:00 +7°C° 0 mm 6 m/S 745 mmHg 91%
09:00 +6°C° 0.4 mm 7 m/S 744 mmHg 90%
10:00 +7°C° 0.4 mm 8 m/S 743 mmHg 88%
11:00 +7°C° 0.4 mm 9 m/S 742 mmHg 86%
12:00 +8°C° 1.1 mm 9 m/S 741 mmHg 85%
13:00 +8°C° 1.1 mm 9 m/S 740 mmHg 84%
14:00 +8°C° 1.1 mm 9 m/S 739 mmHg 82%
15:00 +8°C° 0.2 mm 9 m/S 739 mmHg 78%
16:00 +7°C° 0.2 mm 9 m/S 739 mmHg 75%
17:00 +6°C° 0.2 mm 9 m/S 739 mmHg 71%
18:00 +5°C° 0 mm 10 m/S 740 mmHg 69%
19:00 +2°C° 0 mm 11 m/S 740 mmHg 67%
20:00 0°C° 0 mm 12 m/S 741 mmHg 65%
21:00 0°C° 0 mm 12 m/S 742 mmHg 66%
22:00 +1°C° 0 mm 11 m/S 742 mmHg 66%
23:00 +1°C° 0 mm 11 m/S 743 mmHg 67%

übermorgen, 26 Januar, Dienstag

Zeit Temperatur Niederschläge Wind Luftdruck Luftfeuchtigkeit
00:00 0°C° 0 mm 10 m/S 743 mmHg 67%
01:00 0°C° 0 mm 10 m/S 744 mmHg 66%
02:00 0°C° 0 mm 10 m/S 745 mmHg 66%
03:00 0°C° 0 mm 9 m/S 745 mmHg 63%
04:00 0°C° 0 mm 9 m/S 746 mmHg 60%
05:00 0°C° 0 mm 8 m/S 746 mmHg 56%
06:00 0°C° 0 mm 8 m/S 747 mmHg 57%
07:00 0°C° 0 mm 7 m/S 748 mmHg 57%
08:00 +1°C° 0 mm 6 m/S 749 mmHg 57%
09:00 +2°C° 0 mm 6 m/S 750 mmHg 51%
10:00 +2°C° 0 mm 6 m/S 751 mmHg 45%
11:00 +3°C° 0 mm 6 m/S 752 mmHg 39%
12:00 +4°C° 0 mm 6 m/S 752 mmHg 38%
13:00 +4°C° 0 mm 6 m/S 752 mmHg 36%
14:00 +5°C° 0 mm 6 m/S 753 mmHg 34%
15:00 +5°C° 0 mm 5 m/S 753 mmHg 37%
16:00 +4°C° 0 mm 4 m/S 754 mmHg 39%
17:00 +3°C° 0 mm 3 m/S 754 mmHg 42%
18:00 +2°C° 0 mm 3 m/S 754 mmHg 45%
19:00 +3°C° 0 mm 2 m/S 755 mmHg 47%
20:00 +2°C° 0 mm 2 m/S 755 mmHg 50%
21:00 +1°C° 0 mm 2 m/S 756 mmHg 50%
22:00 +2°C° 0 mm 1 m/S 756 mmHg 50%
23:00 +2°C° 0 mm 1 m/S 756 mmHg 50%

27 Januar, Mittwoch

Zeit Temperatur Niederschläge Wind Luftdruck Luftfeuchtigkeit
00:00 +2°C° 0 mm 1 m/S 756 mmHg 51%
01:00 +1°C° 0 mm 1 m/S 756 mmHg 51%
02:00 +1°C° 0 mm 1 m/S 756 mmHg 52%
03:00 +1°C° 0 mm 1 m/S 756 mmHg 52%
04:00 +1°C° 0 mm 1 m/S 756 mmHg 52%
05:00 +1°C° 0 mm 1 m/S 756 mmHg 52%
06:00 +1°C° 0 mm 1 m/S 756 mmHg 53%
07:00 +1°C° 0 mm 1 m/S 756 mmHg 55%
08:00 -1°C° 0 mm 2 m/S 757 mmHg 57%
09:00 +1°C° 0 mm 2 m/S 756 mmHg 53%
10:00 +2°C° 0 mm 2 m/S 756 mmHg 49%
11:00 +4°C° 0 mm 2 m/S 756 mmHg 46%
12:00 +4°C° 0 mm 2 m/S 756 mmHg 44%
13:00 +5°C° 0 mm 2 m/S 756 mmHg 42%
14:00 +5°C° 0 mm 2 m/S 755 mmHg 40%
15:00 +5°C° 0 mm 2 m/S 755 mmHg 44%
16:00 +5°C° 0 mm 1 m/S 755 mmHg 48%
17:00 +4°C° 0 mm 1 m/S 755 mmHg 52%
18:00 +3°C° 0 mm 1 m/S 755 mmHg 54%
19:00 +2°C° 0 mm 2 m/S 756 mmHg 56%
20:00 +1°C° 0 mm 2 m/S 756 mmHg 59%
21:00 +1°C° 0 mm 2 m/S 756 mmHg 59%
22:00 +1°C° 0 mm 1 m/S 756 mmHg 59%
23:00 +1°C° 0 mm 1 m/S 756 mmHg 59%

28 Januar, Donnerstag

Zeit Temperatur Niederschläge Wind Luftdruck Luftfeuchtigkeit
00:00 +1°C° 0 mm 1 m/S 756 mmHg 59%
01:00 +1°C° 0 mm 1 m/S 755 mmHg 59%
02:00 +1°C° 0 mm 1 m/S 755 mmHg 59%
03:00 +1°C° 0 mm 1 m/S 755 mmHg 59%
04:00 +1°C° 0 mm 1 m/S 755 mmHg 60%
05:00 0°C° 0 mm 1 m/S 755 mmHg 60%
06:00 0°C° 0 mm 1 m/S 755 mmHg 60%
07:00 0°C° 0 mm 1 m/S 756 mmHg 61%
08:00 0°C° 0 mm 1 m/S 756 mmHg 61%
09:00 +1°C° 0 mm 1 m/S 756 mmHg 57%
10:00 +3°C° 0 mm 1 m/S 756 mmHg 52%
11:00 +3°C° 0 mm 2 m/S 756 mmHg 47%
12:00 +3°C° 0 mm 2 m/S 755 mmHg 46%
13:00 +4°C° 0 mm 2 m/S 755 mmHg 44%
14:00 +4°C° 0 mm 2 m/S 755 mmHg 42%
15:00 +4°C° 0 mm 1 m/S 754 mmHg 46%
16:00 +3°C° 0 mm 1 m/S 754 mmHg 49%
17:00 +2°C° 0 mm 1 m/S 754 mmHg 52%
18:00 +1°C° 0 mm 0 m/S 755 mmHg 54%
19:00 +1°C° 0 mm 0 m/S 755 mmHg 56%
20:00 0°C° 0 mm 0 m/S 755 mmHg 58%

29 Januar, Freitag

Zeit Temperatur Niederschläge Wind Luftdruck Luftfeuchtigkeit
Mehr zeigen

Wir brauchen deine Erlaubnis

Meteoprog und unser Service Anbieter werden persönliche Daten aufbewahren, so wie Cookies, Geräte Bezeichnung oder ähnliche Technologien von deinem Gerät und Prozess, so wie Persönliche Daten Inhalte und Werbungen, genauso wie social Media und den Verkehr zu analysieren.

  • Aufbewahrung und/oder Zugang zu deiner Geräte Informationen.

    Cookies, Geräte Bezeichnung oder andere Informationen, können aufbewahrt oder Zugang zu deinem Gerät erhalten, für den Grund, der oben angegeben wird.

  • Personalisierte Werbung und Inhalte, Messungen, Einblick in das Publikum und Produkt Entwicklung.

    Werbungen und Inhalte können personalisiert werden, basierend auf ein Profil. Mehr Daten können besser personalisierte Werbungen und Inhalte hinzufügen. Werbung und Inhalte können gezeigt und gemessen werden. Einblicke über das Publikum, welche die Werbung gesehen haben und den Inhalt, können abgeleitet werden. So wie Daten können genutzt werden, um es zu verbessern oder die Benutzer Erfahrung zu verbessern das System und die Software.

Wenn du “Ich stimme zu” klickst, erlaubst du uns, die Cookies zu benutzen die Geräte Bezeichnung, den Web oder ähnliche Technologien zu benutzen. Deine Settings, können in deinem Gerät bei deinem Browser geändert werden.

Für den bestimmten Zweck, berechtigten Interessen beruhen darauf, mehr als auf den Inhalt. Du kannst mehr darüber in unseren Privaten und Cookie Politik lesen.